Location: Riverside Cemetery
(38.3047°N, 99.7773°W)
Time: 18:17:35
(UTC+00:00)

MOS 1 - Pass Details

Date: 19 September 2020
Orbit: 878 x 891 km, 99.1° (Epoch: 22 October)

Event Time Altitude Azimuth Distance (km) Brightness Sun altitude
Exits shadow 02:14:02 27° 139° (SE) 1,652 5.2 -18.7°
Maximum altitude 02:17:04 57° 72° (ENE) 1,047 4.4 -19.3°
Drops below altitude 10° 02:22:39 10° 355° (N) 2,567 7.0 -20.3°
Sets 02:25:05 0° 351° (N) 3,510 7.8 -20.8°
